IUS DEB, 43362

Orbit data source: Space-Track

IUS DEB, 43362 is space debris originally from a launch on Fri, 23 Jul 1999 UTC launched from the Air Force Eastern Test Range (AFETR). Debris objects in space refer to the collection of defunct objects orbiting the Earth. Examples of debris include non-operational satellites, rocket bodies, and fragments generated from explosions, collisions, or faulty payload assembly.

Loading next visibility...
IUS DEB details
Identifier
43362, 1999-040K
Orbit
Active
Last TLE update1 week ago
Origin
Flag of USGSFC (US)
ManufacturerBoeing/Kent
MissionSpacecraft
Bus & MotorUnknown
MassUnknown
Launch date (UTC)
1999-07-23 (25 years ago)
Launch vehicleUnknown
Launch site
Air Force Eastern Test Range (AFETR)
Object type
Payload
Rocket body
Debris
Shape & HBRUnknown
Radar Cross SectionSmall (<0.1 m²)

Expand to show TLE details & history

TLE from 1 week ago
0 IUS DEB
1 43362U 99040K   24353.51602327 -.00001481  00000-0 -94024-2 0  9990
2 43362  28.1115 310.6564 3730554 187.7309 164.4188  7.09934389229462
Epoch: 2024-12-18T12:23Z
Definitive object data (Epoch: 2024-12-18T12:23:04.41Z)
Latitude-0°
Longitude37.2789°
Altitude9,237.727 km
Speed4.025 km/s
True Right ascension20h 42m 37s
True Declination0° 00' 00"
Sunlit
Object was in daylight at TLE epoch
Visualization TLE readout
Latitude28.15226°
Longitude111.96273°
Altitude5,762.213 km
Speed5.553 km/s
Apparent Right ascension00h 37m 24s
Apparent Declination6° 34' 58"
Sunlit
Object is in daylight
Visualization observer readout
Local Sidereal Time10:09:18
Azimuth314.937° NW
Elevation-32.328°
Doppler factor1
Orbital elements
Apogee altitude9,327.908 km
Perigee altitude793.329 km
Semi-major axis11,438.756 km
Eccentricity0.3730554
Inclination28.1115°
RAAN310.6564°
Arg. of periapsis187.7309°
True anomaly172.3046°
Mean anomaly164.4188°
Eccentric anomaly168.63194°
Mean motion1.77409 °/min
BSTAR-0.0094024
Orbital period202.92 mins
Loading maneuver chart data...
Loading historical data...
Loading historical data...
Loading historical data...
Loading historical data...
Loading historical data...
Loading historical data...
Loading historical data...

IUS DEB Visibility forecast

Observer location: undefined°, undefined

Span
Click to sort rows by Start time (UTC) header in descending order
Start Az.
Max El. time (UTC)
Max El. Az.
Max El.
End time (UTC)
End Az.
92 mins2024-12-26 19:08:04.090Z180.103° SSW2024-12-26 19:53:04.090Z129.922° SE26.665°2024-12-26 20:40:04.090Z85.627° E
102 mins2024-12-26 22:49:04.090Z228.855° WSW2024-12-26 23:56:04.090Z163.805° S41.355°2024-12-27 00:31:04.090Z92.535° ESE
67 mins2024-12-27 03:00:04.090Z265.565° W2024-12-27 03:52:04.090Z198.634° SSW40.601°2024-12-27 04:07:04.090Z125.142° SE
14 mins2024-12-27 07:20:04.090Z263.085° W2024-12-27 07:28:04.090Z238.327° WSW15.026°2024-12-27 07:34:04.090Z206.243° SW
|